Regional Weather Roundup
Issued by NWS

Home | Current Version | Previous Version | Text Only | Print | Product List | Glossary Off
Versions: 1 2 3 4 5 6 7 8 9 10 11 12 13 14 15 16 17 18 19 20 21 22 23 24 25 26 27 28

000
ASUS45 KBOI 270710
RWRID

IDAHO REGIONAL WEATHER ROUNDUP
NATIONAL WEATHER SERVICE BOISE ID
100 AM MDT FRI MAY 27 2016

NOTE: "FAIR" INDICATES FEW OR NO CLOUDS BELOW 12000 FEET
WITH NO SIGNIFICANT WEATHER AND/OR OBSTRUCTIONS TO VISIBILITY

IDZ012-014-270800-
SOUTHWEST IDAHO


CITY           SKY/WX    TMP DP  RH WIND       PRES   REMARKS
BOISE          PTCLDY    57  39  51 S8        29.90S
CALDWELL       PTCLDY    57  43  59 W10       29.92R
MOUNTAIN HOME  CLEAR     54  47  77 S5        29.90S
$$

IDZ016-017-270800-
SOUTHCENTRAL IDAHO


CITY           SKY/WX    TMP DP  RH WIND       PRES   REMARKS
BURLEY         CLEAR     51  38  60 SW9       29.93F
JEROME         PTCLDY    52  40  63 CALM      29.95S
TWIN FALLS     PTCLDY    51  40  65 S13       29.94F
$$

IDZ019>023-270800-
SOUTHEAST IDAHO


CITY           SKY/WX    TMP DP  RH WIND       PRES   REMARKS
IDAHO FALLS    CLEAR     46  41  82 CALM      29.94R
POCATELLO      CLEAR     53  38  56 SW13      29.95S
REXBURG        CLOUDY    51  42  71 SE7       29.93F
$$

IDZ006-010-011-018-031-032-270800-
CENTRAL IDAHO MOUNTAINS


CITY           SKY/WX    TMP DP  RH WIND       PRES   REMARKS
MCCALL         PTCLDY    47  39  74 NW6       29.97S
HAILEY         CLEAR     45  39  81 NW12      29.99S
STANLEY          N/A     36  30  79 S5        30.03S WCI  32
SALMON         CLOUDY    57  37  47 CALM      29.92R
CHALLIS        CLOUDY    50  40  68 CALM      29.95F
$$

IDZ002-004-006-007-026-270800-
NORTHERN IDAHO


CITY           SKY/WX    TMP DP  RH WIND       PRES   REMARKS
LEWISTON       CLEAR     53  42  66 S9        29.95R
LOWELL           N/A     54  52  93 CALM      29.98S
COEUR D`ALENE  MOCLDY    55  39  54 S8G17     29.90S
MULLAN PASS    PTCLDY    39  37  92 SW5       29.98F
$$




USA.gov is the U.S. government's official web portal to all federal, state and local government web resources and services.